Location: *
(13.0000°N, 151.6000°E)
Time: 02:52:30
(UTC+00:00)

CZ-2C R/B - Pass Details

Date: 01 April 2020
Orbit: 668 x 784 km, 98.2° (Epoch: 24 May)

Event Time Altitude Azimuth Distance (km) Brightness Sun altitude
Rises 18:50:28 0° 341° (NNW) 3,001 5.5 -15.0°
Reaches altitude 10° 18:53:43 10° 316° (NW) 2,088 4.4 -14.3°
Enters shadow 18:54:41 12° 304° (NW) 1,931 4.2 -14.0°
